This is the latest recevied weather packets stored in our database for station/object F5ZMN-13. If no packets are shown the sender has not sent any weather packets the latest 10 day(s).
| Time | Temp. | Humidity | Pressure | Rain* | Wind** | Luminosity | Snow |
|---|---|---|---|---|---|---|---|
| 1787777173 | 26.11° C | 59% | 1009.7 hPa | - | - | - | - |
| 1787776558 | 26.11° C | 59% | 1009.9 hPa | - | - | - | - |
| 1787775943 | 26.11° C | 59% | 1009.1 hPa | - | - | - | - |
| 1787775328 | 26.67° C | 59% | 1009.2 hPa | - | - | - | - |
| 1787774713 | 26.67° C | 59% | 1009.2 hPa | - | - | - | - |
| 1787769793 | 26.11° C | 57% | 1006.1 hPa | - | - | - | - |
| 1787769178 | 26.11° C | 57% | 1005.9 hPa | - | - | - | - |
| 1787768563 | 25.56° C | 58% | 1006 hPa | - | - | - | - |
| 1787767948 | 25.56° C | 64% | 1006.3 hPa | - | - | - | - |
| 1787767333 | 25.56° C | 60% | 1006.2 hPa | - | - | - | - |
| 1787766718 | 25.56° C | 63% | 1006.5 hPa | - | - | - | - |
| 1787766103 | 25.56° C | 59% | 1006.7 hPa | - | - | - | - |
| 1787765488 | 25.56° C | 61% | 1006.6 hPa | - | - | - | - |
| 1787764873 | 25° C | 55% | 1006.6 hPa | - | - | - | - |
| 1787764258 | 25° C | 54% | 1006.8 hPa | - | - | - | - |
| 1787763643 | 25.56° C | 54% | 1006.7 hPa | - | - | - | - |
| 1787763027 | 26.11° C | 55% | 1006.7 hPa | - | - | - | - |
| 1787762412 | 25.56° C | 56% | 1006.8 hPa | - | - | - | - |
| 1787761797 | 26.11° C | 56% | 1007.1 hPa | - | - | - | - |
| 1787761182 | 26.11° C | 57% | 1007.1 hPa | - | - | - | - |
| 1787760567 | 26.67° C | 57% | 1007.1 hPa | - | - | - | - |
| 1787759952 | 26.67° C | 58% | 1007.1 hPa | - | - | - | - |
| 1787759337 | 26.67° C | 55% | 1007.3 hPa | - | - | - | - |
| 1787758722 | 26.67° C | 56% | 1007.4 hPa | - | - | - | - |
| 1787758107 | 26.67° C | 56% | 1007.4 hPa | - | - | - | - |
* Rain since midnight (hover to see other rain measurements)
** Current wind speed in m/s (hover to see current wind gust speed)